Location: Newark
(40.7066°N, 111.8219°W)
Time: 14:33:42
(UTC+00:00)

Transit 2A Rocket - Pass Details

Date: 24 November 2019
Orbit: 594 x 909 km, 66.7° (Epoch: 04 December)

Event Time Altitude Azimuth Distance (km) Brightness Sun altitude
Rises 04:02:18 0° 218° (SW) 3,077 - -44.8°
Reaches altitude 10° 04:04:45 10° 222° (SW) 2,114 - -45.2°
Maximum altitude 04:09:25 58° 302° (WNW) 753 - -46.1°
Drops below altitude 10° 04:13:49 10° 22° (NNE) 1,983 - -46.9°
Sets 04:16:03 0° 26° (NNE) 2,868 - -47.3°
